Regional Weather Roundup
Issued by NWS

Home | Current Version | Previous Version | Text Only | Print | Product List | Glossary Off
Versions: 1 2 3 4 5 6 7 8 9 10 11 12 13 14 15 16 17 18 19 20 21 22 23 24 25 26 27 28 29 30 31 32 33 34 35 36 37 38 39 40 41 42 43 44 45 46 47 48 49 50

000
ASUS43 KDTX 220710
RWRMI
MICHIGAN HOURLY REGIONAL WEATHER ROUNDUP
NATIONAL WEATHER SERVICE DETROIT/PONTIAC MI
300 AM EDT SUN APR 22 2018

NOTE: "FAIR" INDICATES FEW OR NO CLOUDS BELOW 12,000 FEET WITH NO
SIGNIFICANT WEATHER AND/OR OBSTRUCTION TO VISIBILITY.

MIZ047>049-052>055-059>063-066>070-074>076-081>083-220800-
SOUTHEAST LOWER MICHIGAN

CITY           SKY/WX    TMP DP  RH WIND       PRES   REMARKS
ADRIAN         FAIR      38  23  55 NE5       30.39F WCI  34
ALMA           FAIR      34  32  92 CALM      30.39S
ANN ARBOR      FAIR      34  26  72 CALM      30.39F
BAD AXE        FAIR      34  26  74 E3        30.40S
CARO           FAIR      31  25  76 CALM      30.39S
DETROIT CITY   FAIR      37  25  61 CALM      30.40F
DETROIT        MOCLDY    39  24  55 CALM      30.40F
FLINT          FAIR      34  28  79 CALM      30.40S
GROSSE ILE     FAIR      35  31  86 CALM      30.39S
HILLSDALE      FAIR      39  18  41 SE3       30.36F
HOWELL         FAIR      37  26  63 CALM      30.39S

CITY           SKY/WX    TMP DP  RH WIND       PRES   REMARKS
JACKSON        FAIR      40  20  44 CALM      30.38F
LAMBERTVILLE   FAIR      38  29  71 CALM      30.38F
LANSING        FAIR      41  27  57 CALM      30.40S
LAPEER         FAIR      32  27  82 CALM      30.40S
MASON          FAIR      40  20  45 CALM      30.39F
MONROE         FAIR      36  30  79 N3        30.39S
MT. CLEMENS    FAIR      33  32  95 CALM        N/A
PONTIAC        FAIR      34  24  67 CALM      30.38F
PORT HOPE        N/A     33  25  72 CALM      30.38F
PORT HURON     FAIR      30  27  86 CALM      30.41R FOG
TRI CITIES     FAIR      43  29  57 S7        30.39S
MIDLAND        FAIR      32  30  93 CALM      30.39S
TROY           FAIR      39  23  53 CALM      30.41S
SAGINAW HB     FAIR      36  28  75 S3        30.39S
$$
MIZ043>046-050>051-056>058-064>065-071>073-077>080-220800-
SOUTHWEST LOWER MICHIGAN

CITY           SKY/WX    TMP DP  RH WIND       PRES   REMARKS
BATTLE CREEK   FAIR      44  27  51 CALM      30.38F
BENTON HARBOR  CLOUDY    40  30  67 CALM      30.36F
BIG RAPIDS     FAIR      32  19  59 CALM      30.37F
COLDWATER      FAIR      45  23  41 CALM      30.37F
FREMONT        FAIR      35  25  66 CALM      30.37F
HOLLAND        FAIR      35  25  66 CALM      30.38F
GRAND RAPIDS   FAIR      36  25  64 CALM      30.38F
IONIA          FAIR      38  28  65 CALM      30.38S
KALAMAZOO      FAIR      46  29  51 E3        30.37F
LUDINGTON      FAIR      29  22  76 CALM      30.38S
MARSHALL       FAIR      40  21  47 CALM      30.37F
MOUNT PLEASANT FAIR      36  32  84 CALM      30.38S
MUSKEGON       FAIR      33  21  61 CALM      30.38F
SOUTH HAVEN    MOCLDY    39  30  70 E3        30.36F
$$
MIZ016>042-220800-
NORTHERN LOWER MICHIGAN

CITY           SKY/WX    TMP DP  RH WIND       PRES   REMARKS
ALPENA         FAIR      26  24  92 CALM      30.40S
BEAVER ISLAND  FAIR      29  25  82 CALM      30.40S
BELLAIRE       FAIR      27  24  89 CALM      30.40F
CADILLAC       FAIR      27  20  76 CALM      30.37R
CHARLEVOIX     FAIR      30  24  79 CALM      30.42F
FRANKFORT      FAIR      30  22  72 CALM      30.40S
GAYLORD        FAIR      29  21  72 CALM      30.38F
GRAYLING       FAIR      24  19  80 CALM      30.38S
HARBOR SPRINGS FAIR      31  20  64 CALM      30.39F
HOUGHTON LAKE  FAIR      29  25  85 CALM      30.38F
MANISTEE       FAIR      27  23  85 CALM      30.39S
OSCODA         FAIR      27  20  75 CALM      30.40S
PELLSTON       FAIR      25  21  85 CALM      30.40F
ROGERS CITY    FAIR      33  27  78 CALM      30.40S
TRAVERSE CITY  FAIR      30  25  81 CALM      30.39S
$$
MIZ007>008-015-220800-
EASTERN UPPER MICHIGAN

CITY           SKY/WX    TMP DP  RH WIND       PRES   REMARKS
KINROSS        FAIR      32  20  61 CALM      30.39S
MACKINAC ISLAN FAIR      36  18  48 CALM      30.39S
NEWBERRY       FAIR      27  26  94 CALM      30.38S
S. S. MARIE    FAIR      33  21  61 CALM      30.38F
MUNISING         N/A     28  23  81 S3        30.37S
$$
MIZ004>006-011>014-085-220800-
CENTRAL UPPER MICHIGAN

CITY           SKY/WX    TMP DP  RH WIND       PRES   REMARKS
MANISTIQUE     FAIR      27  25  94 S8        30.38S WCI  18
ESCANABA       FAIR      26  23  88 CALM      30.37F
MENOMINEE      FAIR      33  24  69 CALM      30.37F
SAWYER-GWINN   FAIR      27  18  69 CALM      30.36S
$$
MIZ001>003-009>011-084-220800-
WESTERN UPPER MICHIGAN

CITY           SKY/WX    TMP DP  RH WIND       PRES   REMARKS
IRON MOUNTAIN  FAIR      29  21  72 CALM      30.34S
HOUGHTON       FAIR      39  11  31 CALM      30.34F
COPPER HARBOR    N/A     41  14  33 SW9       30.34F
IRONWOOD       FAIR      27  23  85 E3        30.35F
$$

ABBREVIATIONS USED IN REMARKS
   TC - TEMPERATURE IN CELSIUS
  WCI - WIND CHILL INDEX
   HX - HEAT INDEX
  VSB - VISIBILITY





USA.gov is the U.S. government's official web portal to all federal, state and local government web resources and services.